Back to catalog

THOR ABLESTAR R/B

AlivePO
NORAD 953·ROCKET BODY·🇺🇸 United States

Launched Dec 13, 1964 from Vandenberg Space Force Base

Loading…

Next Passes (next 24 hours)

TLE

FreshSource: Space-Track

Epoch: Sep 14, 2026, 06:07 UTC

1 00953U 64083A   26257.25546992  .00000048  00000-0  52921-4 0  9997
2 00953  90.0426 193.4785 0031731 170.1887 347.1792 13.58843315 60677

Track THOR ABLESTAR R/B in real time with AllMySat

Download on the App Store